Regional Weather Roundup
Issued by NWS

Current Version | Previous Version | Text Only | Print | Product List | Glossary On
Versions: 1 2 3 4 5 6 7 8 9 10 11 12 13 14 15 16 17 18 19 20 21 22 23 24 25 26 27 28 29 30 31 32 33 34 35 36 37 38 39 40 41 42 43 44 45 46 47 48 49 50
280
ASUS42 KTBW 291217
RWRFL
FLORIDA REGIONAL WEATHER ROUNDUP
NATIONAL WEATHER SERVICE TAMPA BAY RUSKIN FL
800 AM EDT WED MAR 29 2017

NOTE: "FAIR" INDICATES FEW OR NO CLOUDS BELOW 12,000 FEET WITH NO
SIGNIFICANT WEATHER AND/OR OBSTRUCTIONS TO VISIBILITY.

FLZ001>010-012>015-112-114-115-291300-
PANHANDLE FLORIDA

CITY           SKY/WX    TMP DP  RH WIND       PRES   REMARKS
PENSACOLA      PTCLDY    69  66  90 SE5       29.98R
PENSACOLA NAS  MOCLDY    65  63  93 CALM      29.98R
MILTON NAS     FOG       63  63 100 CALM      30.00  VSB 1/4
CRESTVIEW      FOG       65  64  97 CALM      30.02R VSB 1/4
DUKE FIELD     FOG       61  61 100 CALM      30.00R VSB 1/4
VALPARAISO     MOCLDY    62  62  97 N3        30.00R
MARY ESTHER    PTCLDY    60  60  99 CALM      29.98R
PANAMA CITY    FOG       61  60  97 CALM      29.99R VSB 1/4
TYNDALL AFB    FOG       62  62 100 CALM      30.00R VSB 0
APALACHICOLA   FOG       57  57 100 CALM      30.00R VSB 1

STATION/POSITION SKY/WX   TEMP    WIND        PRES    WAVE   SWELL
                          AIR SEA DIR/SP/G            HT/PER HT/PER
                          (F)     (DEG/KT/KT) (MB)    (FT/S) (FT/S)
30.1N   87.6W              71 71  150/  8/ 10 1014.6R   2/ 5   2/ 5
29.2N   88.2W              73 73  160/ 16/ 17 1014.0R   4/ 5
28.8N   86.0W              72 72              1015.3R   1/ 5   2/ 5
PANAMA CITY BEAC           67 72   70/  4/  5 1015.8R
TOWER C                    69     120/  3/  3 1016.7R
28.5N   84.5W              70 71  120/  8/ 10 1016.0R   1/ 5

$$
FLZ011-016>038-118-127-128-134-139-239-291300-
NORTH FLORIDA

CITY           SKY/WX    TMP DP  RH WIND       PRES   REMARKS
MARIANNA       CLOUDY    67  65  93 CALM      30.01R
TALLAHASSEE    FOG       64  64 100 NW3       30.02R VSB 1/4
PERRY          FOG       58  57  97 CALM      30.02S VSB<1/4
CROSS CITY     FOG       55  55 100 CALM      30.02R VSB 1/4
LAKE CITY      FOG       57  57 100 CALM      30.02R VSB 1/4
GAINESVILLE    FOG       56  56 100 CALM      30.03R VSB<1/4
WILLISTON      FOG       57  57 100 CALM      30.03S VSB 0
PALATKA        FAIR      55  55 100 CALM      30.03S FOG
MAYPORT NAS    PTCLDY    62  60  93 SW3       30.01R
JACKSONVILLE   PTCLDY    58  58 100 SW3       30.01R
JAX NAS        PTCLDY    64  60  87 SW5       30.02R
FERNANDINA BEA FAIR      64  61  88 CALM      29.99R
ST AUGUSTINE   CLEAR     63  60  90 SW5       30.03R
PALM COAST     CLEAR     57  57 100 CALM      30.02R

STATION/POSITION SKY/WX   TEMP    WIND        PRES    WAVE   SWELL
                          AIR SEA DIR/SP/G            HT/PER HT/PER
                          (F)     (DEG/KT/KT) (MB)    (FT/S) (FT/S)
SHELL POINT      NOT AVBL
KEATON BEACH               61      40/  3/  4 1016.0R
CEDAR KEY                  69      90/  5/  6 1016.6R
FERNANDINA                 64 70  240/  2/  4 1016.6R
30.7N   81.3W                 68                N/A     3/10   2/11
MAYPORT                    64 69  210/  3/  4 1016.4R
31.4N   80.9W              67 64  290/  8/ 10 1014.5    3/10   3/10
ST AUGUSTINE               63 67  250/  4/  7 1017.3R

$$
FLZ040-043>046-052-053-057-058-063-144-291300-
INTERIOR CENTRAL FLORIDA

CITY           SKY/WX    TMP DP  RH WIND       PRES   REMARKS
OCALA          CLEAR     55  52  88 CALM      30.04R
THE VILLAGES     N/A     59  59 100 CALM      29.94R
LEESBURG       CLEAR     62  62 100 CALM      30.04R
SANFORD        CLEAR     63  58  83 S3        30.03R
ORLANDO EXEC   CLEAR     66  61  84 CALM      30.03R
ORLANDO INTL   CLEAR     65  60  84 CALM      30.04R
KISSIMMEE      CLEAR     63  60  90 CALM      30.05R
WINTER HAVEN   CLEAR     65  63  93 CALM      30.04R
LAKELAND       CLEAR     63  61  94 CALM      30.04R
BARTOW         CLEAR     59  59 100 CALM      30.03R
OKEECHOBEE     PTCLDY   N/A N/A N/A CALM      30.03R

$$
FLZ041-047-054-059-064-141-147-291300-
EAST CENTRAL FLORIDA

CITY           SKY/WX    TMP DP  RH WIND       PRES   REMARKS
ORMOND BEACH   CLEAR     59  57  94 CALM      30.03R
DAYTONA BEACH  CLEAR     59  59 100 SW3       30.03R
DELAND         CLEAR     59  57  94 CALM      30.03R
NEW SMYRNA BEA CLEAR     61  57  88 CALM      30.04R
JFK SPACE CTR  CLEAR     66  64  94 SW3       30.01R
TITUSVILLE     CLEAR     57  55  94 CALM      30.03R
CAPE CANAVERAL CLEAR     66  62  88 CALM      30.02R
PATRICK AFB    CLEAR     68  65  88 W5        30.02R
MELBOURNE      PTCLDY    63  60  90 CALM      30.03R
VERO BEACH     CLEAR     60  58  92 CALM      30.03R
FT PIERCE      CLEAR     59  59 100 CALM      30.03R
STUART         CLEAR     66  63  88 CALM      30.03R

STATION/POSITION SKY/WX   TEMP    WIND        PRES    WAVE   SWELL
                          AIR SEA DIR/SP/G            HT/PER HT/PER
                          (F)     (DEG/KT/KT) (MB)    (FT/S) (FT/S)
TRIDENT PIER               68 73  230/  3/  3 1017.9R
28.4N   80.5W                 72                N/A     2/11   2/11
27.5N   80.2W                 74                N/A     3/11   2/11

$$
FLZ050-056-061-142-242-148-248-149-249-151-251-155-255-
160-260-291300-
WEST CENTRAL FLORIDA

CITY           SKY/WX    TMP DP  RH WIND       PRES   REMARKS
CRYSTAL RIVER  FAIR      54  52  94 CALM      30.04R
INVERNESS      FAIR      54  54 100 CALM      30.04R
BROOKSVILLE    CLEAR     55  55 100 CALM      30.04R
CLEARWATER AIR FAIR      63  61  94 CALM      30.01S
ST PETE CLEARW CLEAR     66  62  87 E3        30.02R
TAMPA INTL     CLEAR     68  61  78 E5        30.02R
TAMPA EXEC     CLEAR     61  59  94 CALM      30.03R FOG
PLANT CITY     CLEAR     61  61 100 CALM      30.05R
MACDILL AFB    CLEAR     61  61 100 E3        30.02R
PETER O KNIGHT CLOUDY    66  64  94 CALM      30.03R
ST PETERSBURG  CLEAR     69  64  84 SE5       30.00R
SARASOTA       CLEAR     62  60  93 E3        30.00R
VENICE         FAIR      64  63  94 NE3       30.02R

STATION/POSITION SKY/WX   TEMP    WIND        PRES    WAVE   SWELL
                          AIR SEA DIR/SP/G            HT/PER HT/PER
                          (F)     (DEG/KT/KT) (MB)    (FT/S) (FT/S)
27.3N   84.2W                 72                N/A     1/ 5
CLEARWATER BEACH           68 72  100/  4/  6 1016.5R
MIDDLE TAMPA BAY           67     120/  4/  5 1016.7R
VENICE                     65 71   70/  3/  5 1016.2R

$$
FLZ066-069-070-075>078-162-262-165-265-291300-
SOUTHWEST FLORIDA AND KEYS

CITY           SKY/WX    TMP DP  RH WIND       PRES   REMARKS
PUNTA GORDA    CLEAR     60  60 100 CALM      30.04R
FT MYERS       PTCLDY    66  63  90 CALM      30.01R
SOUTHWEST INTL CLEAR     63  61  93 CALM      30.02R
NAPLES         CLEAR     65  64  97 CALM      30.01R
IMMOKALEE      FAIR      57  57 100 CALM      30.01R
MARATHON       CLEAR     76  66  71 SE7       30.01R
KEY WEST NAS   PTCLDY    74  64  71 SE10      30.00R
KEY WEST INTL  PTCLDY    76  65  68 SE12      30.01R

STATION/POSITION SKY/WX   TEMP    WIND        PRES    WAVE   SWELL
                          AIR SEA DIR/SP/G            HT/PER HT/PER
                          (F)     (DEG/KT/KT) (MB)    (FT/S) (FT/S)
NAPLES                        74              1016.0R
26.0N   85.6W              76 78  110/ 16/ 17 1014.9F   2/ 5
DRY TORTUGAS               74      90/ 10/ 10 1016.1R
SAND KEY                   76     140/ 14/ 17 1016.4R
LONG KEY                   75 77  150/  7/  8 1016.1R
MOLASSES REEF              75 78   CALM  /  2 1016.4

$$
FLZ067-068-071>074-168-172>174-291300-
SOUTHEAST FLORIDA

CITY           SKY/WX    TMP DP  RH WIND       PRES   REMARKS
W PALM BEACH   PTCLDY    65  62  90 CALM      30.03R
BOCA RATON     CLEAR     66  64  94 VRB3      30.02R
FT LAUDER-EXEC PTCLDY    70  65  84 CALM      30.01R
FT LAUDERDALE  PTCLDY    73  65  75 SW3       30.01R
POMPANO BEACH  PTCLDY    71  66  84 CALM      30.02R
PEMBROKE PINES MOCLDY    70  66  87 CALM      30.03R
OPA LOCKA      CLEAR    N/A N/A N/A CALM      30.02R
MIAMI          PTCLDY    74  65  73 CALM      30.02R
WEST KENDALL   PTCLDY    67  65  93 CALM      30.02R
HOMESTEAD      CLEAR     67  67 100 CALM      30.01R

STATION/POSITION SKY/WX   TEMP    WIND        PRES    WAVE   SWELL
                          AIR SEA DIR/SP/G            HT/PER HT/PER
                          (F)     (DEG/KT/KT) (MB)    (FT/S) (FT/S)
PORT EVERGLADES            74     180/  4/  7 1016.3R
LAKE WORTH                        270/  4/  5   N/A
FOWEY ROCKS                75 76  130/  8/  9 1017.0R
SETTLEMENT POINT           73     120/  5/  5 1016.7R

$$





USA.gov is the U.S. government's official web portal to all federal, state and local government web resources and services.